This is the latest recevied weather packets stored in our database for station/object K0CPM-2. If no packets are shown the sender has not sent any weather packets the latest 10 day(s).
| Time | Temp. | Humidity | Pressure | Rain* | Wind** | Luminosity | Snow |
|---|---|---|---|---|---|---|---|
| 1777794342 | 15.56° C | 64% | 1017 hPa | 0 mm | - | - | - |
| 1777793437 | 16.67° C | 62% | 1016.9 hPa | 0 mm | - | - | - |
| 1777792537 | 16.67° C | 60% | 1016.8 hPa | 0 mm | - | - | - |
| 1777791632 | 17.22° C | 59% | 1016.8 hPa | 0 mm | - | - | - |
| 1777790729 | 17.78° C | 57% | 1016.9 hPa | 0 mm | - | - | - |
| 1777789827 | 18.33° C | 56% | 1016.7 hPa | 0 mm | - | - | - |
| 1777788924 | 18.33° C | 54% | 1016.6 hPa | 0 mm | - | - | - |
| 1777788029 | 18.33° C | 55% | 1016.6 hPa | 0 mm | - | - | - |
| 1777787133 | 18.33° C | 54% | 1016.6 hPa | 0 mm | - | - | - |
| 1777786222 | 18.89° C | 53% | 1016.4 hPa | 0 mm | - | - | - |
| 1777785323 | 18.33° C | 54% | 1016.4 hPa | 0 mm | - | - | - |
| 1777784417 | 18.89° C | 53% | 1016.6 hPa | 0 mm | - | - | - |
| 1777783516 | 18.89° C | 54% | 1016.4 hPa | 0 mm | - | - | - |
| 1777782615 | 18.89° C | 52% | 1016.3 hPa | 0 mm | - | - | - |
| 1777781713 | 19.44° C | 51% | 1016.1 hPa | 0 mm | - | - | - |
| 1777780824 | 19.44° C | 51% | 1016.1 hPa | 0 mm | - | - | - |
| 1777779912 | 18.89° C | 53% | 1016.1 hPa | 0 mm | - | - | - |
| 1777779009 | 19.44° C | 51% | 1016 hPa | 0 mm | - | - | - |
| 1777778108 | 19.44° C | 49% | 1015.8 hPa | 0 mm | - | - | - |
| 1777777206 | 19.44° C | 49% | 1015.6 hPa | 0 mm | - | - | - |
| 1777776305 | 19.44° C | 48% | 1015.5 hPa | 0 mm | - | - | - |
| 1777775403 | 20° C | 48% | 1015.4 hPa | 0 mm | - | - | - |
| 1777774502 | 19.44° C | 48% | 1015.2 hPa | 0 mm | - | - | - |
| 1777773670 | 20° C | 48% | 1015.1 hPa | 0 mm | - | - | - |
| 1777772759 | 20° C | 49% | 1014.9 hPa | 0 mm | - | - | - |
* Rain latest hour (hover to see other rain measurements)
** Current wind speed in m/s (hover to see current wind gust speed)